FW4413 Weather Reports


time (UTC)temp
F
wind
direction
speed
knots
gust
knots
rain 1hr
in
rain 24hr
in
rain mn
in
humidity
%
barometer
mb
20260506033625 52 185 0.9 4.3 0.00 0.34 0.00 92 1007.0
20260506033442 51 239 1.7 3.5 0.00 0.34 0.00 92 1007.2
20260506033426 52 233 1.7 5.2 0.00 0.34 0.00 91 1007.2
20260506033418 51 224 1.7 5.2 0.00 0.34 0.00 91 1007.2
20260506033217 51 191 1.7 4.3 0.00 0.34 0.00 92 1007.1
20260506031126 51 217 1.7 5.2 0.00 0.34 0.00 91 1007.2
20260506030626 51 217 1.7 5.2 0.00 0.34 0.00 91 1007.2
20260506030132 51 217 2.6 6.1 0.00 0.34 0.00 91 1007.1
20260506025624 51 227 2.6 7.0 0.00 0.34 0.00 91 1007.2
20260506025219 51 228 2.6 7.0 0.00 0.34 0.00 91 1007.1
20260506024701 51 215 2.6 5.2 0.00 0.34 0.00 91 1007.2
20260506023628 51 207 1.7 5.2 0.00 0.34 0.00 91 1007.2
20260506022624 52 218 1.7 5.2 0.00 0.34 0.00 91 1007.2
20260506021145 52 217 1.7 6.1 0.00 0.34 0.00 91 1007.3
20260506020124 51 217 3.5 7.0 0.00 0.34 0.00 91 1007.3
20260506015625 51 209 3.5 7.0 0.00 0.34 0.00 92 1007.3
20260506015124 51 213 2.6 6.1 0.00 0.34 0.00 92 1007.3
20260506014618 51 216 1.7 5.2 0.00 0.34 0.00 92 1007.2
20260506014114 51 183 2.6 5.2 0.00 0.34 0.00 92 1007.2
20260506013611 51 217 2.6 5.2 0.00 0.34 0.00 92 1007.3
20260506013110 51 217 2.6 6.1 0.00 0.34 0.00 92 1007.3
20260506012609 52 217 1.7 6.1 0.00 0.34 0.00 92 1007.3
20260506012109 52 217 1.7 5.2 0.00 0.34 0.00 92 1007.4
20260506011608 52 210 2.6 6.1 0.00 0.34 0.00 92 1007.4
20260506011104 52 227 2.6 6.1 0.00 0.34 0.00 91 1007.4
20260506010608 52 211 1.7 5.2 0.00 0.34 0.00 91 1007.4
20260506010114 52 238 1.7 3.5 0.00 0.34 0.00 91 1007.5
20260506005606 52 217 1.7 6.1 0.00 0.34 0.00 92 1007.4
20260506005246 52 239 1.7 3.5 0.00 0.34 0.00 91 1007.6
20260506005129 52 185 1.7 6.1 0.00 0.34 0.00 91 1007.5
20260506004403 52 217 1.7 3.5 0.00 0.34 0.00 91 1007.6
20260506004151 52 239 1.7 3.5 0.00 0.34 0.00 91 1007.6
20260506003104 52 246 2.6 6.1 0.00 0.34 0.00 91 1007.6
20260506002557 52 217 3.5 6.1 0.00 0.34 0.00 91 1007.7
20260506002050 52 216 3.5 7.8 0.00 0.34 0.00 92 1007.8
20260506001549 52 246 3.5 7.8 0.00 0.34 0.00 92 1007.8
20260506001240 52 189 0.9 3.5 0.00 0.34 0.00 92 1007.8
20260506001105 52 212 1.7 7.0 0.00 0.34 0.00 92 1007.9
20260506000057 52 223 0.9 2.6 0.00 0.34 0.00 92 1007.8
20260505234545 52 241 2.6 5.2 0.00 0.34 0.00 92 1007.9
20260505234040 52 241 2.6 5.2 0.00 0.34 0.00 92 1008.0
20260505233543 52 231 1.7 4.3 0.00 0.34 0.00 92 1008.0
20260505233159 52 240 1.7 4.3 0.00 0.34 0.00 93 1007.9
20260505233101 52 264 1.7 4.3 0.00 0.34 0.00 92 1007.9
20260505232037 52 238 1.7 4.3 0.00 0.34 0.00 93 1007.9
20260505231534 52 227 1.7 4.3 0.00 0.34 0.00 93 1007.9
20260505231034 52 248 1.7 3.5 0.00 0.34 0.00 93 1007.9
20260505230712 52 239 0.9 3.5 0.00 0.34 0.00 93 1007.9
20260505230603 51 257 1.7 3.5 0.00 0.34 0.00 93 1007.9
20260505225529 52 217 0.9 2.6 0.00 0.34 0.00 93 1007.9
20260505225034 52 217 0.9 3.5 0.00 0.34 0.00 93 1008.0
20260505224536 52 217 0.0 3.5 0.00 0.34 0.00 93 1007.9
20260505224025 51 217 0.0 1.7 0.00 0.34 0.00 93 1007.9
20260505223517 51 217 0.0 0.9 0.00 0.34 0.00 93 1007.9
20260505223014 51 217 0.0 0.9 0.00 0.34 0.00 93 1008.0
20260505222516 51 217 0.0 0.9 0.00 0.34 0.00 93 1007.9
20260505222011 51 217 0.0 0.9 0.00 0.34 0.00 93 1007.9
20260505221518 51 217 0.0 0.0 0.00 0.34 0.00 93 1007.9
20260505221112 51 217 0.0 0.9 0.00 0.34 0.00 93 1007.9
20260505221029 51 217 0.0 0.0 0.00 0.34 0.00 93 1007.8
20260505220006 51 217 0.0 0.9 0.00 0.34 0.00 93 1008.0
20260505215502 51 217 0.0 1.7 0.00 0.34 0.34 93 1008.0
20260505215009 51 217 0.9 1.7 0.00 0.34 0.34 93 1008.0
20260505214510 51 217 0.9 1.7 0.00 0.34 0.34 93 1008.1
20260505214002 51 217 0.9 2.6 0.00 0.34 0.34 93 1008.1
20260505213624 51 217 0.9 2.6 0.00 0.34 0.34 93 1008.1
20260505213049 51 217 0.9 2.6 0.00 0.34 0.34 93 1008.1
20260505212016 51 322 0.0 1.7 0.00 0.34 0.34 93 1008.1
20260505211616 51 322 0.0 0.0 0.00 0.34 0.34 93 1008.3
20260505211528 51 322 0.0 1.7 0.00 0.34 0.34 93 1008.2
20260505210517 51 322 0.0 0.9 0.00 0.34 0.34 93 1008.2
20260505210400 51 322 0.0 1.7 0.00 0.34 0.34 92 1008.1
20260505210343 52 322 0.0 1.7 0.00 0.34 0.34 93 1008.2
20260505210331 51 322 0.0 1.7 0.00 0.34 0.34 92 1008.2
20260505210123 51 322 0.0 0.9 0.00 0.34 0.34 92 1008.2
20260505203704 51 322 0.0 0.9 0.00 0.34 0.34 92 1008.1
20260505203636 52 322 0.0 0.9 0.00 0.34 0.34 92 1008.1
20260505201949 52 322 0.0 0.9 0.00 0.34 0.34 92 1008.1
20260505201447 52 322 0.0 0.0 0.00 0.34 0.34 92 1008.0
20260505200948 52 322 0.0 0.0 0.00 0.34 0.34 91 1008.0
20260505200446 52 322 0.0 0.9 0.00 0.34 0.34 91 1007.9
20260505195944 52 322 0.0 0.9 0.00 0.34 0.34 91 1007.8
20260505195443 52 322 0.0 0.9 0.00 0.34 0.34 91 1007.6
20260505194937 52 322 0.0 0.9 0.00 0.34 0.34 90 1007.6
20260505194443 52 322 0.0 1.7 0.00 0.34 0.34 90 1007.6
20260505193607 53 309 1.7 5.2 0.00 0.34 0.34 90 1007.3
20260505191930 53 303 2.6 7.8 0.01 0.34 0.34 90 1007.3
20260505191430 53 337 3.5 7.8 0.02 0.34 0.34 90 1007.3
20260505191216 53 308 3.5 7.8 0.04 0.34 0.34 90 1007.4
20260505191016 53 334 3.5 7.8 0.03 0.34 0.34 90 1007.3
20260505185931 53 329 3.5 9.6 0.06 0.34 0.34 90 1007.2
20260505185424 53 327 3.5 9.6 0.09 0.34 0.34 89 1007.3
20260505184918 53 323 3.5 7.8 0.14 0.34 0.34 89 1007.4
20260505184521 53 305 2.6 7.8 0.21 0.34 0.34 89 1007.6
20260505183939 53 329 0.9 4.3 0.31 0.34 0.34 90 1007.8
20260505183038 53 36 0.0 6.1 0.33 0.33 0.33 89 1008.0
20260505182926 53 337 0.0 6.1 0.33 0.33 0.33 89 1008.1
20260505181911 53 39 1.7 7.0 0.33 0.33 0.33 88 1007.9
20260505181409 54 288 4.3 10.4 0.32 0.32 0.31 88 1007.9
20260505180906 54 289 6.1 10.4 0.31 0.31 0.31 87 1007.8
20260505180405 54 264 7.0 18.2 0.30 0.30 0.29 87 1007.8
20260505175905 54 265 7.0 18.2 0.28 0.28 0.27 86 1007.9
20260505175405 54 258 7.8 15.6 0.24 0.24 0.24 85 1007.7
20260505174903 55 286 7.8 15.6 0.19 0.19 0.17 83 1007.6
20260505174802 57 241 7.8 19.1 0.03 0.03 0.02 78 1007.9
20260505174757 59 173 7.8 19.1 0.00 0.00 0.00 72 1007.8
20260505174506 56 247 7.8 16.5 0.13 0.13 0.10 81 1007.7
20260505172904 62 277 5.2 17.4 0.00 0.00 0.00 65 1007.8
20260505172402 62 241 0.9 6.1 0.00 0.00 0.00 67 1006.9
20260505171903 63 322 0.9 4.3 0.00 0.00 0.00 67 1006.5
20260505171403 63 326 1.7 5.2 0.00 0.00 0.00 67 1006.5
20260505170904 63 352 1.7 5.2 0.00 0.00 0.00 67 1006.4
20260505170359 63 331 0.9 3.5 0.00 0.00 0.00 67 1006.4
20260505165852 64 332 0.9 4.3 0.00 0.00 0.00 67 1006.3
20260505164848 64 347 1.7 4.3 0.00 0.00 0.00 66 1006.4
20260505164348 64 28 1.7 7.0 0.00 0.00 0.00 67 1006.4
20260505163842 64 51 1.7 7.0 0.00 0.00 0.00 67 1006.4
20260505163551 64 44 2.6 7.8 0.00 0.00 0.00 67 1006.6
20260505163415 64 35 1.7 7.8 0.00 0.00 0.00 68 1006.5
20260505162342 64 1 2.6 7.8 0.00 0.00 0.00 66 1006.7
20260505161938 65 30 4.3 13.0 0.00 0.00 0.00 66 1006.8
20260505161903 64 37 4.3 10.4 0.00 0.00 0.00 66 1006.7
20260505161526 65 56 5.2 13.0 0.00 0.00 0.00 66 1006.7
20260505160410 65 22 4.3 11.3 0.00 0.00 0.00 66 1006.8
20260505153335 65 16 2.6 7.0 0.00 0.00 0.00 67 1006.9
20260505152833 65 77 3.5 6.1 0.00 0.00 0.00 67 1007.0
20260505152328 65 48 3.5 7.8 0.00 0.00 0.00 68 1007.1
20260505152052 65 39 1.7 7.8 0.00 0.00 0.00 68 1007.1
20260505151901 65 18 2.6 7.8 0.00 0.00 0.00 68 1007.1
20260505151119 65 44 3.5 10.4 0.00 0.00 0.00 66 1007.2
20260505150907 65 342 3.5 10.4 0.00 0.00 0.00 67 1007.2
20260505140310 66 338 1.7 7.8 0.00 0.00 0.00 62 1007.4
20260505124809 68 332 2.6 12.2 0.00 0.00 0.00 58 1008.0
20260505124433 68 313 3.5 9.6 0.00 0.00 0.00 58 1008.0
20260505124334 69 338 2.6 8.7 0.00 0.00 0.00 59 1008.0
20260505123302 67 328 4.3 9.6 0.00 0.00 0.00 58 1008.0
20260505122803 67 320 3.5 8.7 0.00 0.00 0.00 58 1008.0
20260505122305 67 335 3.5 7.8 0.00 0.00 0.00 59 1008.0
20260505121802 67 326 3.5 11.3 0.00 0.00 0.00 59 1008.1
20260505121301 67 333 3.5 11.3 0.00 0.00 0.00 59 1008.1
20260505120802 68 13 2.6 9.6 0.00 0.00 0.00 59 1008.1
20260505120310 68 318 2.6 11.3 0.00 0.00 0.00 60 1008.1
20260505115802 68 2 4.3 11.3 0.00 0.00 0.00 58 1008.2
20260505115556 69 330 5.2 11.3 0.00 0.00 0.00 57 1008.2
20260505115346 68 326 6.1 11.3 0.00 0.00 0.00 57 1008.1
20260505114303 69 317 3.5 10.4 0.00 0.00 0.00 57 1008.2
20260505113801 70 323 1.7 6.1 0.00 0.00 0.00 56 1008.3
20260505113302 69 43 1.7 6.1 0.00 0.00 0.00 52 1008.2
20260505112758 69 42 2.6 7.0 0.00 0.00 0.00 51 1008.3
20260505112258 69 49 1.7 7.0 0.00 0.00 0.00 54 1008.4
20260505111803 68 22 0.9 4.3 0.00 0.00 0.00 56 1008.4
20260505111256 68 348 1.7 5.2 0.00 0.00 0.00 58 1008.4
20260505110757 67 32 1.7 8.7 0.00 0.00 0.00 59 1008.4
20260505110257 67 29 2.6 8.7 0.00 0.00 0.00 58 1008.4
20260505110230 68 351 2.6 7.8 0.00 0.00 0.00 59 1008.5
20260505101236 68 89 3.5 6.1 0.00 0.00 0.00 55 1008.9
20260505100736 67 44 3.5 7.0 0.00 0.00 0.00 56 1008.9
20260505100233 67 108 4.3 7.8 0.00 0.00 0.00 57 1009.0
20260505095731 67 76 4.3 9.6 0.00 0.00 0.00 57 1009.1
20260505095232 67 69 3.5 9.6 0.00 0.00 0.00 59 1009.0
20260505094735 67 80 1.7 7.0 0.00 0.00 0.00 58 1009.1
20260505094233 67 31 2.6 5.2 0.00 0.00 0.00 61 1009.1
20260505093729 66 94 3.5 7.0 0.00 0.00 0.00 58 1009.2
20260505093229 66 100 3.5 7.8 0.00 0.00 0.00 60 1009.3
20260505092734 66 106 2.6 7.8 0.00 0.00 0.00 60 1009.3
20260505092236 66 62 2.6 7.8 0.00 0.00 0.00 60 1009.3
20260505091729 66 70 2.6 7.8 0.00 0.00 0.00 61 1009.4
20260505091232 65 99 2.6 7.8 0.00 0.00 0.00 62 1009.4
20260505090734 65 90 2.6 7.0 0.00 0.00 0.00 61 1009.5
20260505090317 65 92 3.5 7.8 0.00 0.00 0.00 62 1009.5
20260505085936 65 64 3.5 7.8 0.00 0.00 0.00 63 1009.7
20260505085333 65 91 2.6 6.1 0.00 0.00 0.00 63 1009.8
20260505084218 64 124 1.7 4.3 0.00 0.00 0.00 67 1009.9
20260505083716 63 96 0.9 3.5 0.00 0.00 0.00 69 1009.8
20260505083216 63 145 1.7 4.3 0.00 0.00 0.00 69 1009.9
20260505082713 63 113 2.6 5.2 0.00 0.00 0.00 68 1009.9
20260505082216 63 80 2.6 5.2 0.00 0.00 0.00 70 1009.9
20260505081713 62 124 2.6 6.1 0.00 0.00 0.00 71 1009.9
20260505081216 62 146 1.7 6.1 0.00 0.00 0.00 70 1010.0
20260505080713 62 114 1.7 3.5 0.00 0.00 0.00 72 1010.0
20260505080207 61 58 1.7 3.5 0.00 0.00 0.00 73 1010.1
20260505075706 61 90 1.7 3.5 0.00 0.00 0.00 73 1010.1
20260505075207 62 62 0.9 3.5 0.00 0.00 0.00 73 1010.1
20260505074706 61 347 0.9 3.5 0.00 0.00 0.00 73 1010.2
20260505073713 60 61 1.7 5.2 0.00 0.00 0.00 77 1010.2
20260505073207 60 317 0.9 3.5 0.00 0.00 0.00 75 1010.2
20260505072709 60 329 1.7 4.3 0.00 0.00 0.00 78 1010.3
20260505072214 59 305 0.9 4.3 0.00 0.00 0.00 78 1010.4
20260505071702 59 18 0.9 4.3 0.00 0.00 0.00 80 1010.4
20260505071205 58 331 1.7 5.2 0.00 0.00 0.00 80 1010.4
20260505070659 58 326 2.6 5.2 0.00 0.00 0.00 80 1010.4
20260505070158 57 307 1.7 3.5 0.00 0.00 0.00 81 1010.5
20260505065651 57 326 0.9 3.5 0.00 0.00 0.00 81 1010.5
20260505065252 57 331 1.7 4.3 0.00 0.00 0.00 81 1010.5
20260505065204 57 331 0.9 3.5 0.00 0.00 0.00 81 1010.4
20260505064145 57 328 1.7 4.3 0.00 0.00 0.00 81 1010.5
20260505063644 56 327 0.9 4.3 0.00 0.00 0.00 81 1010.6
20260505063143 57 335 0.9 3.5 0.00 0.00 0.00 82 1010.6
20260505062648 56 328 0.9 4.3 0.00 0.00 0.00 82 1010.6
20260505062145 56 67 0.9 4.3 0.00 0.00 0.00 82 1010.7
20260505061643 56 325 0.9 4.3 0.00 0.00 0.00 83 1010.7
20260505061531 56 336 0.9 3.5 0.00 0.00 0.00 83 1010.7
20260505061524 56 333 0.9 4.3 0.00 0.00 0.00 83 1010.8
20260505061449 56 253 0.9 4.3 0.00 0.00 0.00 82 1010.8
20260505061307 56 21 0.0 2.6 0.00 0.00 0.00 82 1010.7
20260505054907 56 328 0.9 4.3 0.00 0.00 0.00 82 1010.7
20260505053129 55 286 0.9 5.2 0.00 0.00 0.00 84 1010.6
20260505052630 55 325 0.9 6.1 0.00 0.00 0.00 85 1010.6
20260505052132 55 323 1.7 6.1 0.00 0.00 0.00 84 1010.6
20260505051630 55 17 0.9 5.2 0.00 0.00 0.00 84 1010.5
20260505051130 55 333 0.9 2.6 0.00 0.00 0.00 85 1010.6
20260505050619 55 327 0.0 4.3 0.00 0.00 0.00 85 1010.6
20260505050114 54 326 0.0 4.3 0.00 0.00 0.00 86 1010.6
20260505041108 54 321 6.1 10.4 0.00 0.00 0.00 84 1010.7
20260505040755 54 326 7.0 11.3 0.00 0.00 0.00 84 1010.8
20260505040637 54 324 7.0 11.3 0.00 0.00 0.00 84 1010.8
20260505035604 54 315 6.1 12.2 0.00 0.00 0.00 84 1010.8
20260505035107 54 333 5.2 12.2 0.00 0.00 0.00 84 1010.8
20260505034601 54 331 4.3 11.3 0.00 0.00 0.00 84 1010.8
20260505034237 54 335 3.5 8.7 0.00 0.00 0.00 83 1011.0
20260505034137 54 333 3.5 8.7 0.00 0.00 0.00 84 1010.9